Tracking 17140 objects as of 1-July-2015
HD Live streaming from Space Station

MOLNIYA 3-51

Track MOLNIYA 3-51 now!
MOLNIYA 3-51 is classified as:


NORAD ID: 26867
Int'l Code: 2001-030A
Perigee: 279.9 km
Apogee: 32,590.0 km
Inclination: 62.5 °
Period: 571.3 minutes
Semi major axis: 22805 km
RCS: 12.5893 m2 (large)
Launch date: July 20, 2001
Source: Commonwealth of Independent States (former USSR) (CIS)

Can carry satellite broadcast television as well as military and manned voice communcations; highly elliptical orbit developed for northern latitudes beyond reach of geostationary satellites.
Your satellite tracking list
Your tracking list is empty





NASA's NSSDC Master Catalog

Two Line Element Set (TLE):
1 26867U 01030A   15182.16317753  .00001700  00000-0  50630-3 0  9998
2 26867 062.4682 218.3330 7083694 261.7249 178.2844 02.52075435104582

Source of the keplerian elements: AFSPC

N2YO: 264